Location: Deerlodge Park Campground
(40.4466°N, 108.5129°W)
Time: 17:53:27
(UTC-06:00)

Envisat - Visible Passes

Search period start: 23 September 2018 00:00
Search period end: 03 October 2018 00:00
Orbit: 764 x 766 km, 98.2° (Epoch: 23 September)

Date Brightness Start Highest point End Pass type
(mag) Time Alt. Az. Time Alt. Az. Time Alt. Az.
23 Sep 3.7 20:37:14 10° S 20:42:12 56° W 20:47:12 10° NNW visible
24 Sep 3.0 20:00:28 10° SSE 20:05:28 66° ENE 20:10:31 10° N visible
24 Sep 5.8 21:42:22 10° WSW 21:44:56 14° W 21:47:31 10° WNW visible
25 Sep 3.8 19:24:35 10° SE 19:28:56 30° ENE 19:33:19 10° N visible
25 Sep 4.7 21:03:24 10° SSW 21:07:52 31° W 21:12:22 10° NNW visible
26 Sep 3.2 20:25:58 10° S 20:31:00 71° WSW 20:36:06 10° NNW visible
27 Sep 3.2 19:49:26 10° SSE 19:54:20 52° ENE 19:59:16 10° N visible
27 Sep 5.6 21:30:16 10° SW 21:33:38 18° W 21:37:02 10° NW visible
28 Sep 4.3 20:51:54 10° SSW 20:56:38 39° W 21:01:24 10° NNW visible
29 Sep 3.0 20:14:45 10° SSE 20:19:49 89° SW 20:24:56 10° NNW visible
30 Sep 3.4 19:38:30 10° SE 19:43:13 41° ENE 19:47:57 10° N visible
30 Sep 5.2 21:18:25 10° SW 21:22:22 23° W 21:26:19 10° NW visible
01 Oct 3.8 20:40:30 10° S 20:45:25 50° W 20:50:22 10° NNW visible
02 Oct 2.9 20:03:38 10° SSE 20:08:40 72° ENE 20:13:44 10° N visible
02 Oct 5.9 21:46:04 10° WSW 21:48:11 12° W 21:50:18 10° WNW visible
